Flag for U.S.A. Weather past 2 weeks in Charlottesville, Virginia, U.S.A.

Now
80 °F

Scattered clouds.


Feels Like: 83 °F
Forecast: 68 / 83 °F
Wind: N/A

Location: Charlottesville-Albemarle Airport

Current Time: Aug 22, 2014 at 4:12:06 PM

Latest Report: Aug 22, 2014 at 3:53 PM


Visibility: 10 mi

Pressure: 29.96 "Hg

Humidity: 71%

Dew point: 70 °F

Location of CharlottesvilleLocation

Historic Weather in Charlottesville — Graph

°F

Charlottesville temperature yesterday

Maximum temperature yesterday: 84 °F (at 12:53 PM)
Minimum temperature yesterday: 65 °F (at 4:53 AM)
Average temperature yesterday: 74 °F

Past Weeks' High & Low Weather Summary

 TemperatureHumidityPressure
High85 °F (Aug 20, 4:53 PM)100% (Aug 21, 1:00 AM)30.16 "Hg (Aug 21, 1:00 AM)
Low53 °F (Aug 15, 6:53 AM)37% (Aug 14, 5:53 PM)29.75 "Hg (Aug 12, 6:53 PM)
Average72 °F76%29.97 "Hg
* Reported Aug 7 2:53 PM — Aug 22 2:53 PM, Charlottesville, Weather by CustomWeather, © 2014

Note: Actual official high and low records may vary slightly from our data, if they occured in-between our weather recording intervals... More about our weather records

Advertising

Charlottesville weather history for previous 24 hours

 ConditionsComfort  
Time TempWeatherWind HumidityBarometerVisibility
2:53 PM
Aug 22
79 °FScattered clouds.3 mph74%29.97 "Hg10 mi
1:53 PM75 °FMore clouds than sun.No wind85%29.99 "Hg10 mi
1:04 PM74 °FMore clouds than sun.5 mph91%30.02 "Hg9 mi
12:53 PM74 °FFog.3 mph88%30.00 "Hg4 mi
11:53 AM74 °FFog.No wind91%30.01 "Hg6 mi
10:53 AM73 °FLight rain. Fog.No wind90%30.00 "Hg6 mi
9:53 AM73 °FLight rain. Mostly cloudy.3 mph84%29.99 "Hg10 mi
8:53 AM71 °FLight rain. Partly sunny.6 mph90%30.00 "Hg10 mi
7:53 AM71 °FMostly cloudy.3 mph90%30.00 "Hg10 mi
6:53 AM70 °FPassing clouds.No wind90%29.98 "Hg10 mi
5:53 AM70 °FClear.No wind87%29.97 "Hg10 mi
4:53 AM69 °FClear.3 mph93%29.96 "Hg10 mi
3:53 AM72 °FClear.No wind81%29.95 "Hg10 mi
2:53 AM72 °FClear.3 mph84%29.97 "Hg10 mi
1:53 AM72 °FClear.5 mph84%29.98 "Hg10 mi
12:53 AM74 °FOvercast.3 mph85%29.99 "Hg10 mi
11:53 PM
Aug 21
74 °FMostly cloudy.No wind88%29.99 "Hg10 mi
10:53 PM75 °FLight rain. Mostly cloudy.5 mph85%30.00 "Hg10 mi
9:53 PM75 °FMostly cloudy.7 mph85%30.01 "Hg10 mi
8:53 PM77 °FPassing clouds.3 mph79%30.00 "Hg10 mi
7:53 PM79 °FPassing clouds.5 mph77%29.99 "Hg10 mi
6:53 PM80 °FPassing clouds.5 mph76%30.00 "Hg10 mi
5:53 PM82 °FScattered clouds.5 mph67%29.99 "Hg10 mi
4:53 PM83 °FPartly sunny.6 mph68%30.00 "Hg10 mi
Weather by CustomWeather, © 2014

See weather overviewHow to use our weather pages